sat.trackr.live / text

‹ back to catalog

STARLINK-31782

NORAD 59606 · 2024-080F

PAYLOAD ACTIVE UNKNOWN

§ Identity

Operator
Country
US
Launch date
2024-04-28
Launch site
AFETR
Launch vehicle
Mass (kg)
RCS (m²)

Purposes: comms

External: N2YO · Heavens-Above · Gunter

§ Orbital elements

Epoch: 2026-09-21T08:41:56.143968Z

Period
94.27 min
Inclination
43.0037°
Eccentricity
0.0001012
Mean motion
15.27586351 rev/d
Perigee alt
482.3 km
Apogee alt
483.7 km
Semi-major
6,861.2 km
B*
-5.0197e-5
RAAN
16.7084°
Arg perigee
302.3203°
Mean anomaly
57.7551°
Rev number
13,441

§ Raw data

STARLINK-317821 59606U 24080F   26264.36245537 -.00001643  00000+0 -50197-4 0  99962 59606  43.0037  16.7084 0001012 302.3203  57.7551 15.27586351134414

JSON: /api/v1/satellites/59606 · /tle

For live sub-satellite position, see the globe view (requires WebGL).

§ Visibility from observer

Set your observer location to see the next 7 days of passes ≥ 10°. The values pass through the URL so the page stays shareable.

No JS? Fill the form by hand. The geolocation button needs JavaScript.